Location: Launois
(49.6535°N, 4.5395°E)
Time: 20:37:50
(UTC+00:00)

Lacrosse 5 rocket - Pass Details

Date: 23 May 2024
Orbit: 446 x 572 km, 57.0° (Epoch: 14 June)

Event Time Altitude Azimuth Distance (km) Brightness Sun altitude
Rises 01:19:24 0° 303° (WNW) 2,740 5.0 -16.2°
Reaches altitude 10° 01:21:41 10° 301° (WNW) 1,825 4.0 -16.1°
Maximum altitude 01:25:48 73° 218° (SW) 561 1.1 -15.8°
Drops below altitude 10° 01:29:43 10° 133° (SE) 1,740 3.7 -15.5°
Sets 01:31:51 0° 132° (SE) 2,600 4.6 -15.3°
